Find STARLINK-37596

NORAD ID: 70620 Constellation: starlink operational
LEOCIRCULARRETROGRADE

实时位置

正在加载3D地球...

关于 STARLINK-37596

正在加载描述...

即将过境

Passes for default location (London). Set your location on the main map for personalized predictions.

高度历史

Loading altitude history...

两行轨道根数

1 70620C 26101H 26126.32062500 .00338800 00000+0 53264-3 0 1266
2 70620 97.2849 339.8621 0009891 259.6146 38.4513 16.03662598 19
Epoch: May 6, 2026 • Age: 21 hours